Location: Notre Dame Regional High School Observatory
(37.3056°N, 89.6097°W)
Time: 06:45:53
(UTC-05:00)

Okean-O - Visible Passes

Search period start: 28 May 2016 00:00
Search period end: 07 June 2016 00:00
Orbit: 640 x 641 km, 98.1° (Epoch: 27 May)

Date Brightness Start Highest point End Pass type
(mag) Time Alt. Az. Time Alt. Az. Time Alt. Az.
28 May 2.7 05:10:01 10° NNE 05:14:28 90° W 05:18:54 10° SSW visible
29 May 5.4 03:59:08 10° ENE 04:01:21 14° E 04:03:34 10° ESE visible
30 May 4.7 04:21:33 10° NE 04:25:12 25° E 04:28:50 10° SSE visible
31 May 3.7 04:44:42 10° NNE 04:48:59 45° E 04:53:13 10° S visible
02 Jun 5.4 03:57:32 10° ENE 03:59:32 13° E 04:01:31 10° ESE visible
03 Jun 4.8 04:19:49 10° NE 04:23:23 23° E 04:26:56 10° SSE visible
04 Jun 3.8 04:42:56 10° NNE 04:47:10 43° E 04:51:22 10° S visible
05 Jun 2.8 05:06:24 10° NNE 05:10:52 81° ESE 05:15:18 10° S visible
06 Jun 5.4 03:55:59 10° ENE 03:57:42 12° E 03:59:26 10° ESE visible
